Regional Weather Roundup
Issued by NWS Newport/Morehead, NC

Current Version | Previous Version | Graphics & Text | Print | Product List | Glossary Off
Versions: 1 2 3 4 5 6 7 8 9 10 11 12 13 14 15 16 17 18 19 20 21 22 23 24 25 26 27 28 29 30 31 32 33 34 35 36 37 38 39 40 41 42 43 44 45 46 47 48 49 50

000
ASUS42 KMHX 251513
RWRMHX
WEATHER ROUNDUP FOR EASTERN NORTH CAROLINA
NATIONAL WEATHER SERVICE NEWPORT/MOREHEAD CITY NC
1100 AM EDT WED APR 25 2018

NOTE: "FAIR" INDICATES FEW OR NO CLOUDS BELOW 12,000 FEET
WITH NO SIGNIFICANT WEATHER AND/OR OBSTRUCTIONS TO VISIBILITY

NCZ015>017-031-032-045>047-102-103-251600-
NORTH COAST

CITY           SKY/WX    TMP DP  RH WIND       PRES   REMARKS
EDENTON        NOT AVBL
ELIZABETH CITY FAIR      68  64  87 SW9       29.73F
KITTY HAWK     FAIR      71  59  66 MISG      29.73F
MANTEO         FAIR      71  58  63 SW17      29.75F

$$

NCZ045>047-081-094-103-104-251600-
CENTRAL COAST

CITY           SKY/WX    TMP DP  RH WIND       PRES   REMARKS
FRISCO         FAIR      71  64  78 SW13      29.77S

$$

NCZ095-097-098-100-101-251600-
SOUTHERN COAST

CITY           SKY/WX    TMP DP  RH WIND       PRES   REMARKS
BEAUFORT       FAIR      66  61  84 S12       29.76F
CEDAR ISLAND   NOT AVBL
JACKSONVILLE   FAIR      72  60  66 S12G18    29.75S
PINEY ISLAND   NOT AVBL
WILMINGTON     FAIR      72  58  61 SW13      29.77R


$$

NCZ011>013-027>030-043-044-078>080-089-090>093-098-251600-
COASTAL PLAIN

CITY           SKY/WX    TMP DP  RH WIND       PRES   REMARKS
AHOSKIE        CLOUDY    64  62  93 S6        29.74F
CLINTON        CLOUDY    64  61  88 SW7       29.77S
ELIZABETHTOWN  FAIR      69  57  66 MISG      29.77S
GOLDSBORO      PTSUNNY   68  59  73 SW10      29.73S
GREENVILLE     FAIR      70  61  73 SW9       29.76F
HAVELOCK       NOT AVBL
KENANSVILLE    CLOUDY    68  59  73 SW10      29.76R
KINSTON        CLOUDY    70  61  73 SW9G16    29.76R
NEW BERN       FAIR      70  61  73 VRB5      29.75F
RICHLANDS      CLOUDY    73  61  65 S13       29.76F
ROCKY MOUNT    CLOUDY    65  60  84 S3        29.74S
WASHINGTON     CLOUDY    71  61  71 S6        29.74F
WHITEVILLE     FAIR      70  57  63 W8        29.78R

$$

AMZ130-135-150-152-154-156-158-170-250-252-270-ANZ085-086-088-633-658-670-251600-
MARINE OBSERVATIONS

STATION/POSITION TIME  TEMP    WIND        PRES    WAVE   SWELL
                       AIR SEA DIR/SP/G            HT/PER HT/PER
                 (UTC) (F)     (DEG/KT/KT) (MB)    (FT/S) (FT/S)
CHESAPEAKE LIGHT NOT AVBL
64 E VA BEACH    1450   54 50  160/  8/ 10 1008.0   11/10  11/10
DUCK             1448   67 50  180/ 10/ 12 1006.4
2 E DUCK         1500      54                N/A     7/11   5/11
OREGON INLET     1436   62 54  200/ 12/ 13 1007.4
13E OREGON INLT  1448      53                N/A    10/11  10/11
HATTERAS CG      1436   68 64  210/  7/ 12 1008.0
DIAMOND BUOY     1500   71 70  230/ 14/ 17 1008.6
CAPE LOOKOUT     1500          210/ 11/ 15 1008.2
BEAUFORT LAB     1436   64 63  190/  9/ 12 1008.1
30 SE NEW RVR IN 1408   66 67  220/ 12/ 16 1006.2
30 SE NEW RVR IN 1500      67                N/A     7/11   3/11
27 SE WRIGHTSVLE 1408   65 66  220/ 12/ 17 1008.8
5 SE WRIGHTSVLE  1408   64 62  220/  6/ 10 1007.6
225 S CAPE HAT   1500   72 73  190/ 17/ 21 1010.5
41 SE CHARLESTON 1450      69  240/ 16/ 17 1010.5    6/ 9   5/ 9

$$




USA.gov is the U.S. government's official web portal to all federal, state and local government web resources and services.